K7DC Weather Reports


time (UTC)temp
F
wind
direction
speed
knots
gust
knots
rain 1hr
in
rain 24hr
in
rain mn
in
humidity
%
barometer
mb
20260506062224 59 125 0.0 0.0 0.00 0.18 0.18 53 1014.7
20260506061720 59 113 0.0 0.0 0.00 0.18 0.18 53 1014.8
20260506061218 59 81 0.0 0.9 0.00 0.18 0.18 53 1014.8
20260506060716 59 44 0.9 1.7 0.00 0.18 0.18 55 1014.8
20260506060213 59 90 1.7 1.7 0.00 0.18 0.18 52 1014.8
20260506051145 62 227 1.7 1.7 0.00 0.18 0.18 48 1014.2
20260506050643 62 247 1.7 2.6 0.00 0.18 0.18 47 1014.1
20260506050140 62 244 1.7 2.6 0.00 0.18 0.18 47 1014.1
20260506045133 62 319 0.9 2.6 0.00 0.18 0.18 45 1013.9
20260506044631 62 296 0.9 3.5 0.00 0.18 0.18 45 1013.9
20260506044128 62 309 2.6 3.5 0.00 0.18 0.18 45 1014.1
20260506043625 62 287 1.7 3.5 0.00 0.18 0.18 46 1014.0
20260506043123 62 285 0.0 1.7 0.00 0.18 0.18 47 1014.0
20260506042622 63 278 1.7 2.6 0.00 0.18 0.18 46 1013.9
20260506042119 63 271 0.9 3.5 0.00 0.18 0.18 46 1013.8
20260506041618 63 278 0.9 3.5 0.00 0.18 0.18 44 1013.7
20260506041114 63 279 0.9 1.7 0.00 0.18 0.18 43 1013.4
20260506040612 63 301 2.6 2.6 0.00 0.18 0.18 42 1013.4
20260506040108 63 288 1.7 2.6 0.00 0.18 0.18 43 1013.3
20260506035605 64 287 0.9 2.6 0.00 0.18 0.18 42 1013.3
20260506035102 64 317 0.9 2.6 0.00 0.18 0.18 40 1013.4
20260506034559 64 276 0.9 2.6 0.00 0.18 0.18 40 1013.2
20260506034056 64 256 1.7 3.5 0.00 0.18 0.18 39 1013.4
20260506033553 64 277 3.5 5.2 0.00 0.18 0.18 39 1013.2
20260506033050 65 327 0.9 2.6 0.00 0.18 0.18 39 1013.0
20260506032548 65 296 2.6 3.5 0.00 0.18 0.18 38 1013.0
20260506032044 65 308 2.6 5.2 0.00 0.18 0.18 38 1012.9
20260506031542 65 257 2.6 2.6 0.00 0.18 0.18 38 1012.8
20260506031038 66 277 1.7 5.2 0.00 0.18 0.18 37 1012.6
20260506030537 66 262 3.5 6.1 0.00 0.18 0.18 36 1012.7
20260506030034 66 270 5.2 6.1 0.00 0.18 0.18 36 1012.7
20260506025531 66 255 3.5 5.2 0.00 0.18 0.18 35 1012.6
20260506025027 66 258 4.3 5.2 0.00 0.18 0.18 35 1012.5
20260506024524 66 233 4.3 7.0 0.00 0.18 0.18 34 1012.4
20260506024020 67 275 4.3 6.1 0.00 0.18 0.18 33 1012.4
20260506023516 67 274 2.6 3.5 0.00 0.18 0.18 33 1012.2
20260506023014 67 249 1.7 3.5 0.00 0.18 0.18 33 1012.0
20260506022511 67 209 2.6 5.2 0.00 0.18 0.18 33 1012.0
20260506022008 68 251 4.3 6.1 0.00 0.18 0.18 32 1011.8
20260506021506 68 256 3.5 7.0 0.00 0.18 0.18 32 1011.6
20260506021003 68 276 2.6 3.5 0.00 0.18 0.18 33 1011.8
20260506020501 68 281 4.3 7.0 0.00 0.18 0.18 33 1011.4
20260506015957 68 295 0.9 7.0 0.00 0.18 0.18 32 1011.5
20260506015455 69 185 4.3 5.2 0.00 0.18 0.18 32 1011.5
20260506014952 69 256 2.6 12.2 0.00 0.18 0.18 31 1011.6
20260506014449 69 263 3.5 6.1 0.00 0.18 0.18 32 1011.5
20260506013945 69 181 3.5 7.8 0.00 0.18 0.18 31 1011.3
20260506013443 70 284 2.6 5.2 0.00 0.18 0.18 31 1011.3
20260506012939 70 293 1.7 3.5 0.00 0.18 0.18 31 1011.2
20260506012436 70 245 3.5 6.1 0.00 0.18 0.18 31 1011.2
20260506011933 70 238 3.5 11.3 0.00 0.18 0.18 31 1011.4
20260506011430 71 294 3.5 7.0 0.00 0.18 0.18 30 1011.3
20260506010927 71 269 6.1 7.8 0.00 0.18 0.18 30 1011.2
20260506010426 71 314 3.5 7.8 0.00 0.18 0.18 30 1011.1
20260506005921 72 235 6.1 8.7 0.00 0.18 0.18 30 1011.2
20260506005420 72 287 3.5 7.8 0.00 0.18 0.18 31 1011.2
20260506004914 72 240 3.5 5.2 0.00 0.18 0.18 31 1011.1
20260506004413 73 279 5.2 7.8 0.00 0.18 0.18 31 1010.9
20260506003908 72 267 3.5 6.1 0.00 0.18 0.18 32 1010.9
20260506003405 72 274 4.3 7.8 0.00 0.18 0.18 31 1010.6
20260506002902 72 255 4.3 7.8 0.00 0.18 0.18 31 1010.8
20260506002358 72 244 2.6 5.2 0.00 0.18 0.18 32 1010.7
20260506001853 72 240 4.3 7.8 0.00 0.18 0.18 31 1010.9
20260506001350 73 240 2.6 6.1 0.00 0.18 0.18 29 1010.7
20260506000847 73 258 4.3 6.1 0.00 0.18 0.18 29 1010.8
20260506000346 73 299 3.5 6.1 0.00 0.18 0.18 29 1010.7
20260505235842 74 220 3.5 6.1 0.00 0.18 0.18 29 1010.7
20260505235339 76 225 4.3 7.0 0.00 0.18 0.18 25 1010.6
20260505234836 74 225 4.3 8.7 0.00 0.18 0.18 26 1010.5
20260505234334 75 276 2.6 6.1 0.00 0.18 0.18 26 1010.4
20260505233831 75 253 3.5 8.7 0.00 0.18 0.18 25 1010.7
20260505233329 77 260 5.2 8.7 0.00 0.18 0.18 25 1010.4
20260505232826 77 283 4.3 7.0 0.00 0.18 0.18 23 1010.7
20260505232323 77 219 5.2 7.8 0.00 0.18 0.18 24 1010.7
20260505231820 77 249 5.2 9.6 0.00 0.18 0.18 23 1010.5
20260505231318 75 135 2.6 7.0 0.00 0.18 0.18 25 1010.5
20260505230816 75 284 3.5 8.7 0.00 0.18 0.18 25 1010.6
20260505230313 74 246 2.6 5.2 0.00 0.18 0.18 27 1010.6
20260505225809 76 276 7.0 8.7 0.00 0.18 0.18 25 1010.6
20260505225306 77 233 6.1 11.3 0.00 0.18 0.18 24 1010.8
20260505224801 78 179 3.5 7.8 0.00 0.18 0.18 23 1010.5
20260505224259 79 236 8.7 13.0 0.00 0.18 0.18 23 1010.7
20260505223757 78 277 5.2 8.7 0.00 0.18 0.18 23 1010.8
20260505223253 79 242 8.7 14.8 0.00 0.18 0.18 20 1010.8
20260505222749 79 251 4.3 9.6 0.00 0.18 0.18 21 1010.7
20260505222246 78 258 5.2 9.6 0.00 0.18 0.18 24 1010.9
20260505221743 78 260 4.3 6.1 0.00 0.18 0.18 26 1010.9
20260505221239 79 233 5.2 7.0 0.00 0.18 0.18 24 1011.1
20260505220736 80 231 6.1 15.6 0.00 0.18 0.18 25 1010.9
20260505220233 79 240 7.8 11.3 0.00 0.18 0.18 26 1010.8
20260505215732 78 277 5.2 7.8 0.00 0.18 0.18 26 1010.9
20260505215229 79 249 3.5 8.7 0.00 0.18 0.18 27 1011.2
20260505214726 78 253 4.3 8.7 0.00 0.18 0.18 28 1011.1
20260505214224 79 280 4.3 9.6 0.00 0.18 0.18 28 1011.2
20260505213721 78 286 1.7 7.0 0.00 0.18 0.18 29 1011.2
20260505213218 78 240 5.2 8.7 0.00 0.18 0.18 30 1011.4
20260505212714 79 263 5.2 8.7 0.00 0.18 0.18 28 1011.3
20260505212212 78 270 5.2 9.6 0.00 0.18 0.18 29 1011.3
20260505211708 80 291 5.2 11.3 0.00 0.18 0.18 28 1011.1
20260505211206 79 265 6.1 13.9 0.00 0.18 0.18 29 1011.5
20260505210702 78 246 7.0 13.0 0.00 0.18 0.18 30 1011.3
20260505210159 77 274 1.7 8.7 0.00 0.18 0.18 32 1011.4
20260505205656 77 272 3.5 11.3 0.00 0.18 0.18 32 1011.4
20260505205154 77 254 4.3 8.7 0.00 0.18 0.18 33 1011.3
20260505204651 78 279 3.5 7.8 0.00 0.18 0.18 33 1011.6
20260505204149 77 293 6.1 7.0 0.00 0.18 0.18 32 1011.3
20260505203646 77 268 7.8 9.6 0.00 0.18 0.18 32 1011.7
20260505203143 75 240 3.5 7.8 0.00 0.18 0.18 35 1011.6
20260505202638 77 219 7.8 9.6 0.00 0.18 0.18 33 1011.6
20260505202134 77 275 6.1 9.6 0.00 0.18 0.18 33 1011.6
20260505201631 76 259 3.5 6.1 0.00 0.18 0.18 35 1011.7
20260505201129 77 198 9.6 15.6 0.00 0.18 0.18 33 1011.6
20260505200627 76 255 2.6 9.6 0.00 0.18 0.18 37 1011.7
20260505200124 77 218 5.2 12.2 0.00 0.18 0.18 36 1011.9
20260505195620 78 242 3.5 8.7 0.00 0.18 0.18 34 1011.8
20260505195117 76 211 5.2 8.7 0.00 0.18 0.18 36 1011.8
20260505194614 77 41 4.3 8.7 0.00 0.18 0.18 36 1011.8
20260505194109 79 246 5.2 7.8 0.00 0.18 0.18 34 1011.6
20260505193607 77 224 4.3 8.7 0.00 0.18 0.18 34 1011.8
20260505193104 76 258 4.3 8.7 0.00 0.18 0.18 35 1011.9
20260505192603 76 242 2.6 6.1 0.00 0.18 0.18 36 1011.8
20260505192100 77 174 6.1 11.3 0.00 0.18 0.18 35 1011.9
20260505191558 76 205 6.1 8.7 0.00 0.18 0.18 37 1012.1
20260505191055 76 169 1.7 3.5 0.00 0.18 0.18 39 1011.9
20260505190550 77 155 0.9 5.2 0.00 0.18 0.18 38 1012.1
20260505190046 77 276 3.5 7.8 0.00 0.18 0.18 37 1012.4
20260505185543 77 233 3.5 7.0 0.00 0.18 0.18 40 1012.4
20260505185039 76 292 1.7 8.7 0.00 0.18 0.18 37 1012.4
20260505184536 76 220 3.5 7.8 0.00 0.18 0.18 39 1012.4
20260505184033 77 282 4.3 7.8 0.00 0.18 0.18 39 1012.4
20260505183530 76 211 1.7 6.1 0.00 0.18 0.18 39 1012.5
20260505183027 76 191 3.5 9.6 0.00 0.18 0.18 40 1012.4
20260505182523 75 135 3.5 7.0 0.00 0.18 0.18 43 1012.4
20260505182020 76 244 5.2 7.0 0.00 0.18 0.18 39 1012.6
20260505181517 75 108 3.5 5.2 0.00 0.18 0.18 41 1012.6
20260505181015 73 196 5.2 7.0 0.00 0.18 0.18 43 1012.7
20260505180510 73 116 3.5 7.0 0.00 0.18 0.18 46 1012.8
20260505180008 71 209 0.9 1.7 0.00 0.18 0.18 50 1012.8
20260505175503 71 94 1.7 1.7 0.00 0.18 0.18 52 1012.9
20260505175000 71 42 1.7 2.6 0.00 0.18 0.18 51 1013.0
20260505174457 71 358 0.9 1.7 0.00 0.18 0.18 53 1012.9
20260505173953 72 14 1.7 1.7 0.00 0.18 0.18 50 1012.8
20260505173450 71 72 0.9 0.9 0.00 0.18 0.18 53 1013.0
20260505172947 72 53 0.0 3.5 0.00 0.18 0.18 52 1013.0
20260505172445 72 343 1.7 6.1 0.00 0.18 0.18 51 1012.9
20260505171944 71 76 0.0 0.9 0.00 0.18 0.18 57 1013.0
20260505171441 70 106 0.0 0.9 0.00 0.18 0.18 57 1013.0
20260505170938 70 84 0.9 1.7 0.00 0.18 0.18 61 1013.2
20260505170435 69 112 1.7 1.7 0.00 0.18 0.18 59 1012.9
20260505165930 68 87 0.0 0.9 0.00 0.18 0.18 62 1012.9
20260505165426 68 1 0.0 2.6 0.00 0.18 0.18 63 1012.8
20260505164922 68 57 1.7 1.7 0.00 0.18 0.18 63 1013.1
20260505164419 69 40 3.5 5.2 0.00 0.18 0.18 62 1013.1
20260505163916 67 5 0.9 1.7 0.00 0.18 0.18 65 1013.1
20260505163416 67 53 2.6 6.1 0.00 0.18 0.18 65 1013.1
20260505162914 68 36 3.5 7.0 0.00 0.18 0.18 64 1013.0
20260505162409 68 14 0.9 1.7 0.00 0.18 0.18 68 1013.2
20260505161907 69 50 3.5 3.5 0.00 0.18 0.18 63 1013.2
20260505161403 68 46 0.0 3.5 0.00 0.18 0.18 67 1012.9
20260505160901 67 336 1.7 3.5 0.00 0.18 0.18 68 1013.1
20260505160359 65 30 0.0 1.7 0.00 0.18 0.18 73 1013.3
20260505153337 62 8 0.0 1.7 0.00 0.18 0.18 80 1013.0
20260505152835 62 51 0.9 1.7 0.00 0.18 0.18 79 1013.1
20260505152332 62 57 0.0 1.7 0.00 0.18 0.18 80 1013.0
20260505151831 63 37 1.7 2.6 0.00 0.18 0.18 78 1013.1
20260505151328 63 116 0.0 0.0 0.00 0.18 0.18 77 1013.2
20260505150826 62 116 0.9 0.9 0.00 0.18 0.18 77 1013.0
20260505150323 62 115 0.9 1.7 0.00 0.18 0.18 79 1013.0
20260505140253 60 135 0.0 0.0 0.00 0.18 0.18 85 1012.7
20260505130217 57 137 0.0 0.9 0.00 0.18 0.18 89 1011.9
20260505124706 57 253 0.0 0.0 0.00 0.18 0.18 87 1011.9
20260505124203 57 253 0.0 0.9 0.00 0.18 0.18 87 1011.6
20260505123659 57 254 0.0 0.9 0.00 0.18 0.18 87 1011.3
20260505123156 57 195 0.9 1.7 0.00 0.18 0.18 87 1011.7
20260505122653 58 165 0.9 1.7 0.00 0.18 0.18 87 1011.7
20260505122150 58 267 0.9 1.7 0.00 0.18 0.18 87 1011.6
20260505121647 58 226 0.9 1.7 0.00 0.18 0.18 88 1011.8
20260505121143 58 238 0.0 1.7 0.00 0.18 0.18 87 1011.3
20260505120640 58 229 0.0 2.6 0.00 0.18 0.18 87 1011.7
20260505120136 58 229 0.9 2.6 0.00 0.18 0.18 87 1011.8
20260505115635 58 231 0.9 2.6 0.00 0.18 0.18 86 1011.7
20260505115133 58 263 2.6 2.6 0.00 0.18 0.18 86 1011.4
20260505114630 57 293 0.9 2.6 0.00 0.18 0.18 89 1011.4
20260505114126 57 12 0.0 0.9 0.00 0.18 0.18 92 1011.6
20260505113623 57 16 0.9 0.9 0.00 0.18 0.18 91 1011.1
20260505113120 57 47 0.0 0.0 0.00 0.18 0.18 93 1011.4
20260505112616 57 47 0.0 0.0 0.00 0.18 0.18 94 1011.7
20260505112114 57 47 0.0 0.9 0.00 0.18 0.18 93 1011.5
20260505111608 57 240 0.9 0.9 0.00 0.18 0.18 92 1011.5
20260505111104 57 237 0.0 0.0 0.00 0.18 0.18 92 1011.8
20260505110601 57 237 0.0 0.0 0.00 0.18 0.18 92 1012.1
20260505102033 57 171 0.0 0.0 0.00 0.18 0.18 94 1011.8
20260505101532 57 171 0.9 0.9 0.05 0.18 0.18 94 1012.1
20260505101027 57 171 0.0 0.9 0.05 0.18 0.18 94 1012.4
20260505100525 57 172 0.0 0.9 0.00 0.17 0.17 93 1012.2
20260505100022 57 172 0.0 0.0 0.00 0.17 0.17 93 1012.4
20260505095517 57 172 0.9 1.7 0.00 0.17 0.17 92 1012.8
20260505095014 57 171 0.9 1.7 0.00 0.17 0.17 93 1012.9
20260505094511 58 149 0.9 0.9 0.00 0.17 0.17 93 1012.9
20260505094007 58 138 1.7 1.7 0.00 0.17 0.17 93 1012.8
20260505093503 58 166 0.9 2.6 0.00 0.17 0.17 93 1013.2
20260505093000 58 119 1.7 2.6 0.00 0.17 0.17 93 1013.0
20260505092458 58 101 1.7 2.6 0.00 0.17 0.17 93 1012.9
20260505091955 58 143 1.7 1.7 0.00 0.17 0.17 93 1013.3
20260505091453 58 163 0.9 2.6 0.07 0.17 0.17 93 1013.4
20260505090951 58 134 2.6 5.2 0.00 0.16 0.16 93 1013.5
20260505090449 58 146 1.7 2.6 0.00 0.16 0.16 94 1013.9
20260505085946 58 138 0.9 2.6 0.05 0.16 0.16 94 1013.7
20260505085444 58 112 0.9 1.7 0.05 0.16 0.16 94 1014.1
20260505084942 58 136 1.7 3.5 0.00 0.15 0.15 94 1014.0
20260505084440 58 122 1.7 1.7 0.07 0.15 0.15 94 1014.4
20260505083937 58 151 0.9 2.6 0.07 0.15 0.15 94 1014.4
20260505083434 58 126 1.7 2.6 0.00 0.14 0.14 94 1014.5
20260505082931 58 107 1.7 1.7 0.05 0.14 0.14 94 1014.7
20260505082426 58 117 0.9 2.6 0.05 0.14 0.14 93 1014.7
20260505081924 58 136 0.9 0.9 0.00 0.13 0.13 93 1015.0
20260505081421 58 120 0.9 2.6 0.07 0.13 0.13 93 1015.1
20260505080917 58 122 0.9 2.6 0.07 0.13 0.13 93 1015.3
20260505080413 58 115 0.9 1.7 0.05 0.12 0.12 93 1015.5
20260505075909 58 114 0.9 0.9 0.05 0.12 0.12 94 1015.4
20260505075406 58 113 0.9 0.9 0.07 0.11 0.11 93 1015.4
20260505074903 58 102 0.9 0.9 0.07 0.11 0.11 93 1015.5
20260505074400 58 118 1.7 1.7 0.05 0.10 0.10 93 1015.4
20260505073857 58 121 0.0 0.9 0.12 0.10 0.10 94 1015.6
20260505073355 58 117 0.0 0.9 0.19 0.09 0.09 93 1015.5
20260505072852 58 152 0.9 0.9 0.19 0.08 0.08 93 1015.7
20260505072348 58 122 0.9 1.7 0.19 0.06 0.06 93 1015.5
20260505071844 58 141 0.9 1.7 0.12 0.04 0.04 93 1015.6
20260505071341 58 99 0.0 0.9 0.12 0.03 0.03 92 1015.5
20260505070839 58 111 0.9 1.7 0.12 0.01 0.01 93 1015.6
20260505070335 58 66 0.0 0.0 0.12 0.00 0.00 93 1015.4
20260505065830 58 66 0.0 0.0 0.17 0.17 0.17 93 1015.5
20260505065327 58 66 0.9 0.9 0.12 0.15 0.15 93 1015.9
20260505064825 58 66 0.0 0.0 0.14 0.14 0.14 92 1015.7
20260505064321 58 66 0.0 0.0 0.12 0.13 0.13 92 1015.4
20260505063820 58 70 0.9 0.9 0.12 0.12 0.12 92 1015.4